DMSP 5D-2 F13 DEB, 40611

Orbit data source: Space-Track

DMSP 5D-2 F13 DEB, 40611 is space debris in SSO originally from a launch on Fri, 24 Mar 1995 UTC launched from the Air Force Western Test Range (AFWTR). Debris objects in space refer to the collection of defunct objects orbiting the Earth. Examples of debris include non-operational satellites, rocket bodies, and fragments generated from explosions, collisions, or faulty payload assembly.

Loading next visibility...
Identifier
40611, 1995-015FJ
Orbit
SSO
Country
Flag of USUS
Related business
Manufacturer
Unknown
Mission
Spacecraft
Bus & Motor
Unknown
Mass
Unknown
Launch date (UTC)
1995-03-24 (31 years ago)
Launch vehicle
Unknown
Launch site
Air Force Western Test Range (AFWTR)
Object type
Payload
Rocket body
Debris
Shape & HBR
Unknown shape, 0.1 m
Radar Cross Section
Small (<0.1 m²)

Expand to show TLE details & history
Last TLE update: 3 days ago

TLE from 3 days ago
0 DMSP 5D-2 F13 DEB
1 40611U 95015FJ  25336.55183410  .00006901  00000-0  23905-2 0  9995
2 40611  98.7847   5.5696 0027622 352.2454   7.8300 14.35748942550232
Epoch: 2025-12-02T13:14Z
TLE epoch observation values (Epoch: 2025-12-02T13:14:38.466Z)
Latitude
-0.00002°
Longitude
95.27398°
Altitude
755.942 km
Speed
7.487 km/s
True Right ascension
00h 22m 16s
True Declination
0° 00' 00"
Sunlit
Object was in daylight at epoch
Visualization orbit readout
Latitude
Unknown
Longitude
Unknown
Altitude
Unknown
Speed
Unknown
Apparent Right ascension
Unknown
Apparent Declination
Unknown
Sunlit
N/A
Visualization observer readout
Local Sidereal Time
06:29:08
Azimuth
Unknown
Elevation
Unknown
Doppler factor
Unknown
Orbital elements
Apogee altitude
789.464 km
Perigee altitude
749.976 km
Semi-major axis
7,147.857 km
Eccentricity
0.00276
Inclination
98.7847°
RAAN
5.5696°
Arg. of periapsis
352.2454°
True anomaly
7.87327°
Mean anomaly
7.83°
Eccentric anomaly
7.85162°
Mean motion
3.59153 °/min
Orbital period
100.24 mins
BSTAR
0.0023905

Documentation

Showing up to 5 results
|